Weather History for Newport, VT

Change the Weather History Date:

Sunday, February 17, 2013

  Actual Average Record
Temperature  
Mean Temperature 10 °F -  
Max Temperature 14 °F 28 °F 55 °F (1981)
Min Temperature 7 °F 2 °F -28 °F (1934)
Degree Days  
Heating Degree Days 54    
Moisture  
Dew Point 0 °F    
Average Humidity 65    
Maximum Humidity 79    
Minimum Humidity 58    
Precipitation  
Precipitation 0.00 in - - ()
Sea Level Pressure  
Sea Level Pressure 29.68 in    
Wind  
Wind Speed 10 mph (NW)    
Max Wind Speed 22 mph    
Max Gust Speed 33 mph    
Visibility 10 miles    
Events Snow    
Averages and records for this station are not official NWS values.
T = Trace of Precipitation, MM = Missing Value Source: NWS Daily Summary

Daily Weather History Graph

Daily Weather History Graph

Search for Another Location

Airport:

Trip Planner

Search our weather history database for the weather conditions in past years. The results will help you decide how hot, cold, wet, or windy it might be!

Date:

Astronomy

Feb. 17, 2013 Rise Set
Actual Time 6:46 AM EST 5:20 PM EST
Civil Twilight 6:16 AM EST 5:50 PM EST
Nautical Twilight 5:42 AM EST 6:24 PM EST
Astronomical Twilight 5:08 AM EST 6:58 PM EST
Moon 10:16 AM EST (2/17) 12:33 AM EST (2/17)
Length of Visible Light 11h 34m
Length of Day
10h 34m
Waxing Crescent, 49% of the Moon is Illuminated
Feb 17
Waxing Crescent
Feb 17
First Quarter
Feb 25
Full
Mar 4
Last Quarter
Mar 11
New

Hourly Weather History & Observations

Time (EST) Temp. Windchill Dew Point Humidity Pressure Visibility Wind Dir Wind Speed Gust Speed Precip Events Conditions
12:15 AM 14.0 °F 3.9 °F 3.2 °F 62% 29.86 in 10.0 mi NW 6.9 mph - N/A   Mostly Cloudy
12:35 AM 13.8 °F 6.2 °F 3.2 °F 63% 29.85 in 10.0 mi NNW 4.6 mph - N/A   Scattered Clouds
12:55 AM 13.5 °F 4.4 °F 3.2 °F 64% 29.84 in 10.0 mi NNW 5.8 mph - N/A   Mostly Cloudy
1:15 AM 13.5 °F 3.3 °F 3.0 °F 63% 29.82 in 10.0 mi NW 6.9 mph - N/A   Overcast
1:35 AM 13.3 °F 1.1 °F 3.0 °F 64% 29.81 in 10.0 mi NW 9.2 mph - N/A   Overcast
1:55 AM 13.1 °F 0.9 °F 3.0 °F 64% 29.80 in 10.0 mi NW 9.2 mph - N/A   Overcast
2:15 AM 12.2 °F 0.7 °F 2.5 °F 65% 29.78 in 10.0 mi NW 8.1 mph - N/A   Mostly Cloudy
2:35 AM 11.5 °F 3.5 °F 2.3 °F 67% 29.79 in 10.0 mi NNW 4.6 mph - N/A   Clear
2:55 AM 11.8 °F 5.7 °F 2.3 °F 66% 29.80 in 10.0 mi NW 3.5 mph - N/A   Clear
3:15 AM 11.1 °F -0.6 °F 2.7 °F 69% 29.79 in 10.0 mi NNW 8.1 mph - N/A   Clear
3:35 AM 11.5 °F 0.9 °F 3.0 °F 69% 29.79 in 10.0 mi NW 6.9 mph - N/A   Scattered Clouds
3:55 AM 11.3 °F -1.3 °F 3.2 °F 70% 29.77 in 10.0 mi NNW 9.2 mph - N/A   Overcast
4:15 AM 10.9 °F 1.4 °F 3.2 °F 71% 29.78 in 10.0 mi NW 5.8 mph - N/A   Overcast
4:35 AM 11.1 °F 1.7 °F 3.6 °F 72% 29.77 in 10.0 mi NNW 5.8 mph - N/A Snow Light Snow
4:55 AM 10.9 °F -0.8 °F 3.7 °F 73% 29.76 in 10.0 mi NNW 8.1 mph - N/A   Overcast
5:15 AM 10.4 °F -1.5 °F 3.9 °F 75% 29.75 in 5.0 mi NNW 8.1 mph - N/A Snow Light Snow
5:35 AM 10.4 °F 0.8 °F 4.1 °F 76% 29.76 in 3.0 mi NNW 5.8 mph - N/A Snow Light Snow
5:55 AM 9.5 °F -4.4 °F 3.7 °F 77% 29.74 in 10.0 mi North 10.4 mph - N/A   Overcast
6:15 AM 9.1 °F -4.9 °F 3.2 °F 77% 29.75 in 10.0 mi North 10.4 mph - N/A Snow Light Snow
6:55 AM 8.2 °F -5.1 °F 3.0 °F 79% 29.74 in 10.0 mi North 9.2 mph - N/A Snow Light Snow
7:15 AM 8.2 °F -4.1 °F 3.0 °F 79% 29.73 in 10.0 mi NNW 8.1 mph - N/A   Mostly Cloudy
7:35 AM 8.1 °F -4.3 °F 2.8 °F 79% 29.72 in 10.0 mi NNW 8.1 mph - N/A   Overcast
7:55 AM 8.2 °F -5.1 °F 2.3 °F 77% 29.72 in 10.0 mi NNW 9.2 mph - N/A   Overcast
8:15 AM 8.1 °F -7.0 °F 1.4 °F 74% 29.70 in 10.0 mi NNW 11.5 mph - N/A   Overcast
8:35 AM 8.2 °F -6.8 °F 0.9 °F 72% 29.70 in 10.0 mi NNW 11.5 mph - N/A   Overcast
8:55 AM 8.4 °F -3.9 °F 0.5 °F 70% 29.68 in 10.0 mi NW 8.1 mph - N/A   Overcast
9:15 AM 8.4 °F -7.3 °F 0.1 °F 69% 29.68 in 10.0 mi NW 12.7 mph - N/A   Overcast
9:35 AM 9.0 °F -7.3 °F 0.1 °F 67% 29.67 in 10.0 mi NW 13.8 mph - N/A   Overcast
9:55 AM 8.6 °F -7.0 °F -0.6 °F 66% 29.65 in 10.0 mi NNW 12.7 mph - N/A   Overcast
10:15 AM 8.8 °F -8.1 °F -0.9 °F 65% 29.65 in 10.0 mi NW 15.0 mph 20.7 mph N/A   Overcast
10:35 AM 9.0 °F -6.6 °F -1.3 °F 63% 29.64 in 10.0 mi NW 12.7 mph 20.7 mph N/A   Overcast
11:15 AM 9.3 °F -7.4 °F -1.5 °F 62% 29.63 in 10.0 mi NW 15.0 mph 24.2 mph N/A   Overcast
11:35 AM 9.5 °F -6.6 °F -1.3 °F 62% 29.62 in 10.0 mi NW 13.8 mph 19.6 mph N/A   Overcast
11:55 AM 9.1 °F -8.2 °F -1.5 °F 62% 29.61 in 10.0 mi NW 16.1 mph 21.9 mph N/A   Overcast
12:15 PM 9.5 °F -7.8 °F -0.9 °F 63% 29.60 in 10.0 mi NW 16.1 mph 21.9 mph N/A   Mostly Cloudy
12:35 PM 9.1 °F -5.6 °F -0.8 °F 64% 29.60 in 10.0 mi NW 11.5 mph - N/A   Overcast
12:55 PM 9.5 °F -5.2 °F -0.8 °F 63% 29.60 in 10.0 mi NW 11.5 mph 19.6 mph N/A   Mostly Cloudy
1:15 PM 9.5 °F -8.3 °F -1.1 °F 62% 29.60 in 10.0 mi NW 17.3 mph 23.0 mph N/A   Mostly Cloudy
1:35 PM 9.3 °F -6.1 °F -1.5 °F 62% 29.59 in 10.0 mi NW 12.7 mph 25.3 mph N/A   Overcast
1:55 PM 9.5 °F -6.6 °F -1.5 °F 61% 29.59 in 10.0 mi WNW 13.8 mph 24.2 mph N/A   Mostly Cloudy
2:15 PM 9.5 °F -8.3 °F -1.8 °F 60% 29.59 in 10.0 mi WNW 17.3 mph 26.5 mph N/A   Mostly Cloudy
2:35 PM 9.5 °F -8.8 °F -2.2 °F 59% 29.58 in 10.0 mi WNW 18.4 mph 28.8 mph N/A   Overcast
2:55 PM 10.0 °F -5.2 °F -2.2 °F 58% 29.57 in 10.0 mi WNW 12.7 mph 21.9 mph N/A   Mostly Cloudy
3:15 PM 10.4 °F -7.2 °F -1.7 °F 58% 29.57 in 10.0 mi NW 17.3 mph 26.5 mph N/A   Mostly Cloudy
3:35 PM 10.4 °F -2.4 °F -0.8 °F 61% 29.57 in 10.0 mi WNW 9.2 mph 25.3 mph N/A   Mostly Cloudy
3:55 PM 10.4 °F -6.0 °F -1.1 °F 60% 29.58 in 10.0 mi WNW 15.0 mph 21.9 mph N/A   Mostly Cloudy
4:15 PM 10.4 °F -5.4 °F -1.3 °F 59% 29.58 in 10.0 mi WNW 13.8 mph 20.7 mph N/A   Mostly Cloudy
4:35 PM 10.4 °F -4.8 °F -1.3 °F 59% 29.58 in 10.0 mi NW 12.7 mph 21.9 mph N/A   Mostly Cloudy
4:55 PM 10.9 °F -5.4 °F -0.9 °F 59% 29.58 in 10.0 mi WNW 15.0 mph 20.7 mph N/A   Scattered Clouds
5:15 PM 11.1 °F -3.2 °F -0.9 °F 58% 29.59 in 10.0 mi WNW 11.5 mph 23.0 mph N/A   Scattered Clouds
5:35 PM 11.3 °F -4.3 °F -0.6 °F 59% 29.60 in 10.0 mi WNW 13.8 mph 23.0 mph N/A   Mostly Cloudy
5:55 PM 11.1 °F -6.2 °F -0.6 °F 59% 29.60 in 10.0 mi WNW 17.3 mph 27.6 mph N/A   Overcast
6:15 PM 11.1 °F -6.2 °F -0.8 °F 59% 29.60 in 10.0 mi WNW 17.3 mph 32.2 mph N/A   Mostly Cloudy
6:35 PM 10.9 °F -5.9 °F -0.4 °F 60% 29.60 in 10.0 mi WNW 16.1 mph 27.6 mph N/A   Overcast
6:55 PM 10.4 °F -8.6 °F -0.9 °F 60% 29.62 in 10.0 mi WNW 20.7 mph 33.4 mph N/A   Overcast
7:15 PM 10.4 °F -8.6 °F -1.1 °F 60% 29.62 in 10.0 mi WNW 20.7 mph 31.1 mph N/A   Overcast
7:35 PM 10.4 °F -9.1 °F -1.1 °F 60% 29.63 in 10.0 mi WNW 21.9 mph 29.9 mph N/A   Overcast
8:15 PM 10.0 °F -5.2 °F -1.3 °F 60% 29.64 in 10.0 mi WNW 12.7 mph 31.1 mph N/A   Overcast
8:35 PM 9.9 °F -6.1 °F -1.3 °F 61% 29.65 in 10.0 mi WNW 13.8 mph 29.9 mph N/A   Overcast
8:55 PM 9.5 °F -6.6 °F -1.3 °F 62% 29.67 in 10.0 mi NW 13.8 mph 29.9 mph N/A   Overcast
9:15 PM 9.5 °F -8.8 °F -1.3 °F 62% 29.67 in 10.0 mi WNW 18.4 mph 27.6 mph N/A   Overcast
9:35 PM 9.3 °F -6.8 °F -1.3 °F 62% 29.68 in 10.0 mi WNW 13.8 mph 23.0 mph N/A   Overcast
9:55 PM 9.3 °F -6.8 °F -1.3 °F 62% 29.68 in 10.0 mi WNW 13.8 mph 26.5 mph N/A   Overcast
10:15 PM 8.6 °F -9.5 °F -1.5 °F 64% 29.69 in 10.0 mi WNW 17.3 mph 24.2 mph N/A   Overcast
10:35 PM 8.6 °F -8.9 °F -1.3 °F 64% 29.70 in 7.0 mi NW 16.1 mph 26.5 mph N/A   Overcast
10:55 PM 8.2 °F -8.8 °F -1.5 °F 65% 29.70 in 7.0 mi WNW 15.0 mph 23.0 mph N/A   Overcast
11:15 PM 8.1 °F -6.2 °F -1.3 °F 66% 29.71 in 7.0 mi WNW 10.4 mph 21.9 mph N/A   Overcast
11:35 PM 7.5 °F -6.9 °F -1.5 °F 67% 29.71 in 5.0 mi WNW 10.4 mph 26.5 mph N/A   Haze
11:55 PM 7.3 °F -10.0 °F -1.7 °F 67% 29.72 in 5.0 mi WNW 15.0 mph 27.6 mph N/A   Haze